| time (UTC) | temp F | wind direction | speed MPH | gust MPH | rain 1hr in | rain 24hr in | rain mn in | humidity % | barometer mb |
| 20260507150022 | 51 | 22 | 1.0 | 7.0 | 0.00 | 0.00 | 0.00 | 57 | 1010.9 |
| 20260507143021 | 50 | 315 | 2.0 | 6.0 | 0.00 | 0.00 | 0.00 | 61 | 1011.0 |
| 20260507140043 | 49 | 270 | 2.0 | 6.0 | 0.00 | 0.00 | 0.00 | 67 | 1011.2 |
| 20260507133017 | 48 | 337 | 2.0 | 5.0 | 0.00 | 0.00 | 0.00 | 77 | 1011.0 |
| 20260507130021 | 46 | 315 | 2.0 | 6.0 | 0.00 | 0.00 | 0.00 | 89 | 1010.9 |
| 20260507123021 | 45 | 292 | 2.0 | 5.0 | 0.00 | 0.00 | 0.00 | 95 | 1010.6 |
| 20260507120021 | 43 | 315 | 1.0 | 4.0 | 0.00 | 0.00 | 0.00 | 97 | 1010.8 |
| 20260507113021 | 44 | 0 | 1.0 | 3.0 | 0.00 | 0.00 | 0.00 | 97 | 1010.5 |
| 20260507110025 | 44 | 22 | 1.0 | 4.0 | 0.00 | 0.00 | 0.00 | 97 | 1010.2 |
| 20260507103021 | 43 | 292 | 1.0 | 4.0 | 0.00 | 0.00 | 0.00 | 97 | 1009.7 |
| 20260507100022 | 44 | 292 | 1.0 | 3.0 | 0.00 | 0.00 | 0.00 | 97 | 1009.4 |
| 20260507093020 | 44 | 270 | 1.0 | 2.0 | 0.00 | 0.00 | 0.00 | 97 | 1009.1 |
| 20260507090016 | 44 | 270 | 2.0 | 3.0 | 0.00 | 0.00 | 0.00 | 97 | 1008.9 |
| 20260507083020 | 46 | 292 | 1.0 | 4.0 | 0.00 | 0.00 | 0.00 | 97 | 1008.9 |
| 20260507080016 | 46 | 292 | 1.0 | 3.0 | 0.00 | 0.00 | 0.00 | 97 | 1008.9 |
| 20260507073024 | 46 | 292 | 1.0 | 4.0 | 0.00 | 0.00 | 0.00 | 97 | 1009.0 |
| 20260507070021 | 46 | 292 | 1.0 | 3.0 | 0.00 | 0.00 | 0.00 | 96 | 1009.4 |
| 20260507063020 | 46 | 315 | 2.0 | 4.0 | 0.00 | 0.00 | 0.00 | 96 | 1008.6 |
| 20260507060020 | 46 | 315 | 1.0 | 4.0 | 0.00 | 0.00 | 0.00 | 95 | 1008.7 |
| 20260507053020 | 47 | 315 | 1.0 | 3.0 | 0.00 | 0.00 | 0.00 | 95 | |
| 20260507050020 | 47 | 315 | 1.0 | 4.0 | 0.00 | 0.00 | 0.00 | 95 | 1008.9 |
| 20260507043022 | 47 | 315 | 1.0 | 3.0 | 0.00 | 0.00 | 0.00 | 94 | 1008.9 |
| 20260507040026 | 48 | 315 | 1.0 | 4.0 | 0.00 | 0.00 | 0.00 | 95 | 1008.8 |
| 20260507033020 | 49 | 315 | 1.0 | 4.0 | 0.00 | 0.00 | 0.00 | 95 | 1008.5 |
| 20260507030042 | 50 | 67 | 1.0 | 3.0 | 0.00 | 0.00 | 0.00 | 95 | 1009.3 |
| 20260507023022 | 51 | 225 | 1.0 | 3.0 | 0.00 | 0.00 | 0.00 | 94 | 1009.3 |
| 20260507020022 | 53 | 247 | 1.0 | 4.0 | 0.00 | 0.00 | 0.00 | 94 | 1008.9 |
| 20260507013017 | 55 | 247 | 1.0 | 4.0 | 0.00 | 0.00 | 0.00 | 95 | |
| 20260507010021 | 56 | 247 | 1.0 | 4.0 | 0.00 | 0.00 | 0.00 | 96 | |
| 20260507003021 | 57 | 202 | 1.0 | 3.0 | 0.00 | 0.00 | 0.00 | 97 | 1007.3 |
| 20260507000022 | 57 | 202 | 2.0 | 4.0 | 0.00 | 0.00 | 0.00 | 97 | 1007.0 |
| 20260506233016 | 57 | 202 | 2.0 | 4.0 | 0.00 | 0.00 | 0.00 | 97 | 1006.5 |
| 20260506230021 | 58 | 202 | 2.0 | 5.0 | 0.00 | 0.00 | 0.00 | 97 | 1006.4 |
| 20260506223021 | 58 | 202 | 2.0 | 4.0 | 0.00 | 0.00 | 0.00 | 97 | |
| 20260506220021 | 58 | 202 | 1.0 | 3.0 | 0.00 | 0.00 | 0.00 | 97 | 1005.9 |
| 20260506213021 | 58 | 180 | 2.0 | 4.0 | 0.00 | 0.00 | 0.00 | 97 | |
| 20260506210106 | 58 | 202 | 2.0 | 5.0 | 0.00 | 0.00 | 0.00 | 96 | |
| 20260506203041 | 58 | 202 | 2.0 | 6.0 | 0.00 | 0.00 | 0.00 | 96 | 1005.4 |
| 20260506200021 | 58 | 202 | 3.0 | 6.0 | 0.00 | 0.00 | 0.00 | 96 | 1005.9 |
| 20260506193021 | 58 | 180 | 3.0 | 5.0 | 0.00 | 0.00 | 0.00 | 96 | 1006.3 |
| 20260506190056 | 58 | 202 | 2.0 | 6.0 | 0.00 | 0.00 | 0.00 | 95 | 1006.4 |
| 20260506183022 | 58 | 180 | 2.0 | 6.0 | 0.00 | 0.00 | 0.00 | 95 | 1006.4 |
| 20260506180015 | 58 | 180 | 3.0 | 9.0 | 0.00 | 0.00 | 0.00 | 94 | 1006.7 |
| 20260506173044 | 58 | 180 | 2.0 | 6.0 | 0.00 | 0.00 | 0.00 | 94 | 1006.7 |
| 20260506170015 | 0 | 180 | 2.0 | 5.0 | 0.00 | 0.00 | 0.00 | 94 | |
| 20260506163020 | 59 | 180 | 1.0 | 4.0 | 0.00 | 0.00 | 0.00 | 92 | 1007.7 |
| 20260506153020 | 61 | 180 | 2.0 | 5.0 | 0.00 | 0.00 | 0.00 | 84 | 1008.2 |